| time (UTC) | temp F | wind direction | speed MPH | gust MPH | rain 1hr in | rain 24hr in | rain mn in | humidity % | barometer mb |
| 20260507051510 | 67 | 197 | 3.0 | 14.0 | 0.13 | 1.04 | 0.00 | 89 | 1011.4 |
| 20260507051001 | 67 | 155 | 1.0 | 8.0 | 0.14 | 1.04 | 0.00 | 89 | 1011.3 |
| 20260507050505 | 67 | 155 | 2.0 | 8.0 | 0.14 | 1.04 | 0.00 | 89 | 1011.5 |
| 20260507050012 | 67 | 169 | 3.0 | 6.0 | 0.14 | 1.04 | 0.00 | 89 | 1011.6 |
| 20260507045505 | 67 | 198 | 1.0 | 5.0 | 0.15 | 1.04 | 1.04 | 89 | 1011.7 |
| 20260507045007 | 67 | 165 | 2.0 | 5.0 | 0.15 | 1.03 | 1.03 | 89 | 1012.4 |
| 20260507044512 | 67 | 222 | 1.0 | 4.0 | 0.11 | 0.99 | 0.99 | 89 | 1012.4 |
| 20260507044005 | 67 | 138 | 2.0 | 4.0 | 0.11 | 0.98 | 0.98 | 89 | 1012.1 |
| 20260507043503 | 67 | 100 | 1.0 | 4.0 | 0.13 | 0.98 | 0.98 | 89 | 1012.2 |
| 20260507043020 | 67 | 75 | 2.0 | 4.0 | 0.10 | 0.95 | 0.95 | 89 | 1012.2 |
| 20260507042507 | 67 | 80 | 1.0 | 4.0 | 0.08 | 0.91 | 0.91 | 89 | 1012.1 |
| 20260507042002 | 67 | 118 | 3.0 | 4.0 | 0.10 | 0.91 | 0.91 | 89 | 1012.0 |
| 20260507041502 | 67 | 154 | 0.0 | 3.0 | 0.11 | 0.91 | 0.91 | 89 | 1012.4 |
| 20260507041001 | 68 | 134 | 0.0 | 3.0 | 0.11 | 0.90 | 0.90 | 89 | 1012.2 |
| 20260507040503 | 68 | 167 | 0.0 | 3.0 | 0.13 | 0.90 | 0.90 | 89 | 1012.0 |
| 20260507040002 | 68 | 126 | 0.0 | 7.0 | 0.16 | 0.90 | 0.90 | 89 | 1011.9 |
| 20260507035502 | 68 | 122 | 2.0 | 7.0 | 0.18 | 0.89 | 0.89 | 89 | 1011.3 |
| 20260507035005 | 68 | 168 | 2.0 | 6.0 | 0.20 | 0.88 | 0.88 | 89 | 1011.8 |
| 20260507034503 | 68 | 143 | 2.0 | 6.0 | 0.23 | 0.88 | 0.88 | 89 | 1012.1 |
| 20260507034003 | 68 | 188 | 3.0 | 9.0 | 0.24 | 0.87 | 0.87 | 89 | 1012.6 |
| 20260507033503 | 69 | 246 | 3.0 | 8.0 | 0.23 | 0.85 | 0.85 | 89 | 1013.0 |
| 20260507033003 | 69 | 195 | 3.0 | 6.0 | 0.24 | 0.85 | 0.85 | 89 | 1013.0 |
| 20260507032503 | 69 | 147 | 1.0 | 3.0 | 0.24 | 0.83 | 0.83 | 89 | 1012.5 |
| 20260507032002 | 69 | 74 | 0.0 | 3.0 | 0.22 | 0.81 | 0.81 | 89 | 1012.6 |
| 20260507031509 | 69 | 74 | 0.0 | 4.0 | 0.22 | 0.80 | 0.80 | 89 | 1012.2 |
| 20260507031003 | 69 | 324 | 2.0 | 5.0 | 0.22 | 0.79 | 0.79 | 89 | 1012.6 |
| 20260507030503 | 69 | 82 | 2.0 | 8.0 | 0.21 | 0.77 | 0.77 | 89 | 1012.5 |
| 20260507030009 | 69 | 261 | 3.0 | 8.0 | 0.21 | 0.74 | 0.74 | 89 | 1013.0 |
| 20260507025505 | 69 | 229 | 4.0 | 7.0 | 0.32 | 0.71 | 0.71 | 89 | 1013.0 |
| 20260507025002 | 69 | 192 | 3.0 | 7.0 | 0.31 | 0.68 | 0.68 | 89 | 1012.9 |
| 20260507024508 | 69 | 190 | 1.0 | 4.0 | 0.30 | 0.65 | 0.65 | 89 | 1012.8 |
| 20260507024002 | 69 | 198 | 0.0 | 3.0 | 0.29 | 0.63 | 0.63 | 89 | 1012.4 |
| 20260507023503 | 69 | 198 | 0.0 | 4.0 | 0.29 | 0.62 | 0.62 | 89 | 1012.5 |
| 20260507023007 | 69 | 198 | 1.0 | 7.0 | 0.29 | 0.61 | 0.61 | 89 | 1012.2 |
| 20260507022502 | 69 | 158 | 1.0 | 7.0 | 0.27 | 0.58 | 0.58 | 89 | 1011.8 |
| 20260507022004 | 69 | 165 | 2.0 | 5.0 | 0.27 | 0.58 | 0.58 | 89 | 1011.6 |
| 20260507021503 | 69 | 143 | 3.0 | 6.0 | 0.26 | 0.58 | 0.58 | 89 | 1011.7 |
| 20260507021005 | 69 | 187 | 2.0 | 6.0 | 0.26 | 0.57 | 0.57 | 89 | 1012.0 |
| 20260507020503 | 69 | 159 | 1.0 | 3.0 | 0.25 | 0.56 | 0.56 | 89 | 1011.7 |
| 20260507020003 | 69 | 142 | 1.0 | 2.0 | 0.22 | 0.52 | 0.52 | 89 | 1012.0 |
| 20260507015502 | 69 | 266 | 1.0 | 2.0 | 0.08 | 0.39 | 0.39 | 89 | 1012.5 |
| 20260507015005 | 69 | 196 | 0.0 | 2.0 | 0.06 | 0.37 | 0.37 | 89 | 1011.9 |
| 20260507014503 | 69 | 196 | 0.0 | 4.0 | 0.04 | 0.35 | 0.35 | 89 | 1011.9 |
| 20260507014004 | 69 | 200 | 0.0 | 6.0 | 0.03 | 0.34 | 0.34 | 89 | 1012.0 |
| 20260507013503 | 69 | 148 | 1.0 | 9.0 | 0.02 | 0.33 | 0.33 | 88 | 1011.8 |
| 20260507013005 | 69 | 142 | 3.0 | 9.0 | 0.01 | 0.32 | 0.32 | 88 | 1011.4 |
| 20260507012504 | 69 | 140 | 4.0 | 14.0 | 0.01 | 0.32 | 0.32 | 88 | 1011.8 |
| 20260507012005 | 69 | 182 | 5.0 | 14.0 | 0.01 | 0.32 | 0.32 | 88 | 1012.0 |
| 20260507011504 | 69 | 195 | 4.0 | 12.0 | 0.01 | 0.32 | 0.32 | 88 | 1012.4 |
| 20260507011001 | 69 | 183 | 4.0 | 9.0 | 0.00 | 0.31 | 0.31 | 88 | 1012.2 |
| 20260507010503 | 69 | 193 | 2.0 | 7.0 | 0.00 | 0.31 | 0.31 | 88 | 1011.5 |
| 20260507010005 | 69 | 187 | 0.0 | 7.0 | 0.00 | 0.31 | 0.31 | 88 | 1011.0 |
| 20260507005504 | 69 | 179 | 2.0 | 5.0 | 0.00 | 0.31 | 0.31 | 88 | 1011.1 |
| 20260507005004 | 69 | 145 | 1.0 | 7.0 | 0.00 | 0.31 | 0.31 | 88 | 1011.0 |
| 20260507004510 | 69 | 255 | 2.0 | 8.0 | 0.00 | 0.31 | 0.31 | 88 | 1011.6 |
| 20260507004003 | 69 | 148 | 3.0 | 8.0 | 0.00 | 0.31 | 0.31 | 88 | 1011.3 |
| 20260507003507 | 70 | 154 | 4.0 | 7.0 | 0.00 | 0.31 | 0.31 | 88 | 1011.7 |
| 20260507003005 | 70 | 235 | 3.0 | 7.0 | 0.00 | 0.31 | 0.31 | 88 | 1012.2 |
| 20260507002502 | 70 | 229 | 2.0 | 7.0 | 0.00 | 0.31 | 0.31 | 88 | 1012.2 |
| 20260507002003 | 70 | 192 | 2.0 | 9.0 | 0.00 | 0.31 | 0.31 | 88 | 1011.8 |
| 20260507001514 | 70 | 177 | 1.0 | 9.0 | 0.00 | 0.31 | 0.31 | 88 | 1011.7 |
| 20260507001004 | 70 | 172 | 1.0 | 7.0 | 0.00 | 0.31 | 0.31 | 88 | 1011.6 |
| 20260507000505 | 70 | 150 | 3.0 | 7.0 | 0.00 | 0.31 | 0.31 | 88 | 1011.6 |
| 20260507000008 | 70 | 151 | 2.0 | 5.0 | 0.00 | 0.31 | 0.31 | 88 | 1011.9 |
| 20260506235504 | 71 | 118 | 2.0 | 4.0 | 0.00 | 0.31 | 0.31 | 88 | 1011.5 |
| 20260506235003 | 71 | 176 | 1.0 | 4.0 | 0.00 | 0.31 | 0.31 | 88 | 1011.8 |
| 20260506234503 | 71 | 165 | 0.0 | 2.0 | 0.00 | 0.31 | 0.31 | 88 | 1011.5 |
| 20260506234006 | 71 | 210 | 0.0 | 2.0 | 0.00 | 0.31 | 0.31 | 88 | 1011.6 |
| 20260506233503 | 71 | 210 | 0.0 | 8.0 | 0.00 | 0.31 | 0.31 | 88 | 1011.6 |
| 20260506233017 | 71 | 235 | 1.0 | 8.0 | 0.01 | 0.31 | 0.31 | 88 | 1011.3 |
| 20260506232504 | 71 | 172 | 3.0 | 8.0 | 0.01 | 0.31 | 0.31 | 88 | 1011.8 |
| 20260506232004 | 71 | 159 | 2.0 | 6.0 | 0.01 | 0.31 | 0.31 | 88 | 1011.9 |
| 20260506231517 | 71 | 165 | 2.0 | 6.0 | 0.01 | 0.31 | 0.31 | 88 | 1011.9 |
| 20260506231004 | 71 | 207 | 4.0 | 11.0 | 0.01 | 0.31 | 0.31 | 87 | 1011.8 |
| 20260506230507 | 71 | 165 | 2.0 | 11.0 | 0.01 | 0.31 | 0.31 | 87 | 1012.1 |
| 20260506230004 | 72 | 193 | 4.0 | 11.0 | 0.01 | 0.31 | 0.31 | 87 | 1012.4 |
| 20260506225503 | 72 | 184 | 3.0 | 11.0 | 0.01 | 0.31 | 0.31 | 87 | 1012.2 |
| 20260506225003 | 72 | 169 | 4.0 | 10.0 | 0.01 | 0.31 | 0.31 | 87 | 1012.4 |
| 20260506224506 | 72 | 224 | 2.0 | 9.0 | 0.01 | 0.31 | 0.31 | 88 | 1012.1 |
| 20260506224003 | 72 | 185 | 2.0 | 9.0 | 0.01 | 0.31 | 0.31 | 88 | 1011.7 |
| 20260506223503 | 72 | 148 | 2.0 | 9.0 | 0.01 | 0.31 | 0.31 | 87 | 1011.8 |
| 20260506223006 | 72 | 177 | 4.0 | 9.0 | 0.00 | 0.30 | 0.30 | 87 | 1012.4 |
| 20260506222510 | 72 | 207 | 3.0 | 9.0 | 0.00 | 0.30 | 0.30 | 87 | 1012.4 |
| 20260506222009 | 72 | 206 | 2.0 | 7.0 | 0.00 | 0.30 | 0.30 | 87 | 1012.4 |
| 20260506221508 | 72 | 220 | 3.0 | 7.0 | 0.01 | 0.30 | 0.30 | 87 | 1012.4 |
| 20260506221007 | 72 | 215 | 2.0 | 5.0 | 0.03 | 0.30 | 0.30 | 87 | 1012.2 |
| 20260506220507 | 72 | 198 | 0.0 | 5.0 | 0.11 | 0.30 | 0.30 | 88 | 1012.2 |
| 20260506220005 | 72 | 221 | 2.0 | 5.0 | 0.15 | 0.30 | 0.30 | 88 | 1012.3 |
| 20260506215507 | 72 | 211 | 1.0 | 6.0 | 0.19 | 0.30 | 0.30 | 88 | 1012.5 |
| 20260506215006 | 72 | 141 | 3.0 | 7.0 | 0.21 | 0.30 | 0.30 | 88 | 1012.5 |
| 20260506214507 | 71 | 196 | 3.0 | 7.0 | 0.21 | 0.30 | 0.30 | 88 | 1012.7 |
| 20260506214004 | 71 | 217 | 1.0 | 4.0 | 0.21 | 0.30 | 0.30 | 88 | 1012.4 |
| 20260506213505 | 71 | 204 | 2.0 | 5.0 | 0.22 | 0.30 | 0.30 | 88 | 1012.5 |
| 20260506213012 | 71 | 202 | 2.0 | 5.0 | 0.23 | 0.30 | 0.30 | 87 | 1012.7 |
| 20260506212507 | 71 | 188 | 2.0 | 4.0 | 0.23 | 0.30 | 0.30 | 87 | 1012.7 |
| 20260506212007 | 71 | 215 | 0.0 | 0.0 | 0.23 | 0.30 | 0.30 | 87 | 1012.5 |
| 20260506211517 | 71 | 198 | 0.0 | 8.0 | 0.22 | 0.29 | 0.29 | 87 | 1012.4 |
| 20260506211007 | 71 | 309 | 1.0 | 8.0 | 0.20 | 0.27 | 0.27 | 87 | 1012.4 |
| 20260506210515 | 71 | 323 | 5.0 | 8.0 | 0.12 | 0.19 | 0.19 | 87 | 1012.7 |
| 20260506210040 | 71 | 272 | 2.0 | 6.0 | 0.08 | 0.15 | 0.15 | 86 | 1012.8 |
| 20260506205505 | 71 | 270 | 3.0 | 9.0 | 0.04 | 0.11 | 0.11 | 86 | 1012.8 |
| 20260506205012 | 71 | 200 | 3.0 | 9.0 | 0.02 | 0.09 | 0.09 | 86 | 1012.5 |
| 20260506204516 | 71 | 217 | 2.0 | 10.0 | 0.06 | 0.09 | 0.09 | 86 | 1012.4 |
| 20260506204005 | 71 | 133 | 2.0 | 10.0 | 0.07 | 0.09 | 0.09 | 86 | 1012.5 |
| 20260506203511 | 71 | 205 | 3.0 | 7.0 | 0.07 | 0.08 | 0.08 | 86 | 1012.6 |
| 20260506203011 | 71 | 196 | 4.0 | 7.0 | 0.06 | 0.07 | 0.07 | 86 | 1012.6 |
| 20260506202503 | 71 | 213 | 2.0 | 7.0 | 0.06 | 0.07 | 0.07 | 86 | 1012.8 |
| 20260506202004 | 71 | 192 | 2.0 | 6.0 | 0.07 | 0.07 | 0.07 | 86 | 1013.0 |
| 20260506201516 | 72 | 145 | 2.0 | 7.0 | 0.07 | 0.07 | 0.07 | 86 | 1012.9 |
| 20260506201007 | 72 | 223 | 3.0 | 7.0 | 0.07 | 0.07 | 0.07 | 86 | 1013.3 |
| 20260506200507 | 72 | 217 | 1.0 | 7.0 | 0.07 | 0.07 | 0.07 | 86 | 1013.4 |
| 20260506200010 | 72 | 167 | 1.0 | 4.0 | 0.07 | 0.07 | 0.07 | 86 | 1013.2 |
| 20260506195507 | 72 | 165 | 1.0 | 6.0 | 0.07 | 0.07 | 0.07 | 85 | 1013.4 |
| 20260506195005 | 72 | 219 | 2.0 | 6.0 | 0.07 | 0.07 | 0.07 | 84 | 1013.8 |
| 20260506194525 | 72 | 242 | 2.0 | 8.0 | 0.03 | 0.03 | 0.03 | 83 | 1014.0 |
| 20260506194009 | 73 | 219 | 3.0 | 8.0 | 0.02 | 0.02 | 0.02 | 82 | 1013.9 |
| 20260506193504 | 73 | 219 | 3.0 | 6.0 | 0.01 | 0.01 | 0.01 | 82 | 1013.8 |
| 20260506193034 | 73 | 194 | 3.0 | 9.0 | 0.01 | 0.01 | 0.01 | 81 | 1013.9 |
| 20260506192507 | 74 | 243 | 4.0 | 11.0 | 0.01 | 0.01 | 0.01 | 79 | 1014.0 |
| 20260506192012 | 74 | 229 | 5.0 | 11.0 | 0.00 | 0.00 | 0.00 | 78 | 1014.0 |
| 20260506191513 | 75 | 227 | 6.0 | 11.0 | 0.00 | 0.00 | 0.00 | 76 | 1014.0 |
| 20260506191006 | 75 | 221 | 4.0 | 12.0 | 0.00 | 0.00 | 0.00 | 76 | 1013.9 |
| 20260506190502 | 76 | 238 | 5.0 | 12.0 | 0.00 | 0.00 | 0.00 | 75 | 1014.0 |
| 20260506190002 | 76 | 261 | 6.0 | 10.0 | 0.00 | 0.00 | 0.00 | 75 | 1014.2 |
| 20260506185505 | 76 | 146 | 3.0 | 10.0 | 0.00 | 0.00 | 0.00 | 75 | 1014.1 |
| 20260506185002 | 76 | 184 | 4.0 | 15.0 | 0.00 | 0.00 | 0.00 | 75 | 1014.2 |
| 20260506184504 | 76 | 234 | 5.0 | 18.0 | 0.00 | 0.00 | 0.00 | 75 | 1014.3 |
| 20260506184002 | 76 | 207 | 11.0 | 18.0 | 0.00 | 0.00 | 0.00 | 74 | 1014.4 |
| 20260506183503 | 76 | 198 | 4.0 | 10.0 | 0.00 | 0.00 | 0.00 | 76 | 1014.2 |
| 20260506183003 | 75 | 220 | 5.0 | 10.0 | 0.00 | 0.00 | 0.00 | 76 | 1014.3 |
| 20260506182506 | 75 | 179 | 5.0 | 12.0 | 0.00 | 0.00 | 0.00 | 76 | 1014.4 |
| 20260506182003 | 75 | 231 | 4.0 | 12.0 | 0.00 | 0.00 | 0.00 | 76 | 1014.4 |
| 20260506181501 | 75 | 206 | 6.0 | 12.0 | 0.00 | 0.00 | 0.00 | 76 | 1014.4 |
| 20260506181002 | 75 | 218 | 8.0 | 12.0 | 0.00 | 0.00 | 0.00 | 76 | 1014.6 |
| 20260506180501 | 75 | 227 | 5.0 | 16.0 | 0.00 | 0.00 | 0.00 | 76 | 1014.4 |
| 20260506180003 | 75 | 205 | 7.0 | 16.0 | 0.00 | 0.00 | 0.00 | 76 | 1014.4 |
| 20260506175502 | 75 | 207 | 6.0 | 15.0 | 0.00 | 0.00 | 0.00 | 75 | 1014.4 |
| 20260506175003 | 75 | 190 | 7.0 | 15.0 | 0.00 | 0.00 | 0.00 | 74 | 1014.6 |
| 20260506174503 | 76 | 233 | 8.0 | 16.0 | 0.00 | 0.00 | 0.00 | 75 | 1014.4 |
| 20260506174003 | 76 | 214 | 8.0 | 16.0 | 0.00 | 0.00 | 0.00 | 74 | 1014.4 |
| 20260506173504 | 76 | 209 | 8.0 | 17.0 | 0.00 | 0.00 | 0.00 | 75 | 1014.4 |
| 20260506173004 | 75 | 271 | 6.0 | 17.0 | 0.00 | 0.00 | 0.00 | 77 | 1014.5 |
| 20260506172503 | 74 | 246 | 9.0 | 16.0 | 0.00 | 0.00 | 0.00 | 77 | 1014.7 |
| 20260506172002 | 74 | 229 | 9.0 | 14.0 | 0.00 | 0.00 | 0.00 | 76 | 1014.9 |
| 20260506171505 | 74 | 229 | 8.0 | 16.0 | 0.00 | 0.00 | 0.00 | 76 | 1014.9 |
| 20260506171006 | 74 | 215 | 10.0 | 19.0 | 0.00 | 0.00 | 0.00 | 76 | 1015.0 |
| 20260506170505 | 74 | 231 | 9.0 | 19.0 | 0.00 | 0.00 | 0.00 | 75 | 1015.0 |
| 20260506170002 | 75 | 239 | 9.0 | 14.0 | 0.00 | 0.00 | 0.00 | 75 | 1015.2 |
| 20260506165502 | 75 | 231 | 8.0 | 14.0 | 0.00 | 0.00 | 0.00 | 75 | 1015.1 |
| 20260506165003 | 75 | 215 | 6.0 | 17.0 | 0.00 | 0.00 | 0.00 | 75 | 1015.1 |
| 20260506164513 | 75 | 228 | 8.0 | 17.0 | 0.00 | 0.00 | 0.00 | 75 | 1015.1 |
| 20260506164003 | 74 | 240 | 5.0 | 14.0 | 0.00 | 0.00 | 0.00 | 75 | 1014.9 |
| 20260506163502 | 74 | 233 | 7.0 | 15.0 | 0.00 | 0.00 | 0.00 | 75 | 1014.9 |
| 20260506163009 | 74 | 227 | 8.0 | 17.0 | 0.00 | 0.00 | 0.00 | 75 | 1014.9 |
| 20260506162508 | 74 | 258 | 9.0 | 17.0 | 0.00 | 0.00 | 0.00 | 74 | 1014.9 |
| 20260506162004 | 75 | 245 | 9.0 | 16.0 | 0.00 | 0.00 | 0.00 | 73 | 1014.8 |
| 20260506161503 | 74 | 198 | 7.0 | 12.0 | 0.00 | 0.00 | 0.00 | 75 | 1014.8 |
| 20260506161004 | 74 | 249 | 5.0 | 15.0 | 0.00 | 0.00 | 0.00 | 75 | 1014.9 |
| 20260506160503 | 74 | 232 | 8.0 | 15.0 | 0.00 | 0.00 | 0.00 | 75 | 1014.9 |
| 20260506160003 | 74 | 278 | 4.0 | 15.0 | 0.00 | 0.00 | 0.00 | 75 | 1014.8 |
| 20260506155504 | 74 | 183 | 5.0 | 11.0 | 0.00 | 0.00 | 0.00 | 75 | 1014.9 |
| 20260506155003 | 74 | 177 | 4.0 | 13.0 | 0.00 | 0.00 | 0.00 | 75 | 1014.7 |
| 20260506154503 | 74 | 229 | 6.0 | 13.0 | 0.00 | 0.00 | 0.00 | 76 | 1014.8 |
| 20260506154003 | 74 | 225 | 8.0 | 13.0 | 0.00 | 0.00 | 0.00 | 75 | 1014.9 |
| 20260506153503 | 74 | 200 | 7.0 | 18.0 | 0.00 | 0.00 | 0.00 | 76 | 1015.0 |
| 20260506153004 | 73 | 265 | 8.0 | 18.0 | 0.00 | 0.00 | 0.00 | 76 | 1015.1 |
| 20260506152504 | 73 | 225 | 7.0 | 16.0 | 0.00 | 0.00 | 0.00 | 76 | 1015.0 |
| 20260506152002 | 73 | 227 | 5.0 | 16.0 | 0.00 | 0.00 | 0.00 | 77 | 1015.1 |
| 20260506151504 | 73 | 211 | 8.0 | 17.0 | 0.00 | 0.00 | 0.00 | 77 | 1015.1 |
| 20260506151003 | 73 | 235 | 9.0 | 17.0 | 0.00 | 0.00 | 0.00 | 77 | 1015.1 |
| 20260506150504 | 73 | 236 | 9.0 | 14.0 | 0.00 | 0.00 | 0.00 | 77 | 1015.1 |
| 20260506150003 | 73 | 219 | 4.0 | 15.0 | 0.00 | 0.00 | 0.00 | 78 | 1015.1 |
| 20260506145503 | 72 | 224 | 7.0 | 16.0 | 0.00 | 0.00 | 0.00 | 78 | 1015.1 |
| 20260506145003 | 71 | 250 | 9.0 | 16.0 | 0.00 | 0.00 | 0.00 | 78 | 1015.2 |
| 20260506144506 | 71 | 226 | 8.0 | 15.0 | 0.00 | 0.00 | 0.00 | 79 | 1015.3 |
| 20260506144006 | 71 | 213 | 6.0 | 18.0 | 0.00 | 0.00 | 0.00 | 79 | 1015.4 |
| 20260506143505 | 71 | 227 | 11.0 | 18.0 | 0.00 | 0.00 | 0.00 | 79 | 1015.2 |
| 20260506143003 | 71 | 211 | 9.0 | 17.0 | 0.00 | 0.00 | 0.00 | 79 | 1015.4 |
| 20260506142503 | 71 | 225 | 9.0 | 17.0 | 0.00 | 0.00 | 0.00 | 79 | 1015.5 |
| 20260506142002 | 71 | 172 | 9.0 | 15.0 | 0.00 | 0.00 | 0.00 | 79 | 1015.4 |
| 20260506141514 | 71 | 217 | 4.0 | 15.0 | 0.00 | 0.00 | 0.00 | 80 | 1015.4 |
| 20260506141004 | 70 | 225 | 8.0 | 15.0 | 0.00 | 0.00 | 0.00 | 80 | 1015.5 |
| 20260506140504 | 69 | 215 | 7.0 | 13.0 | 0.00 | 0.00 | 0.00 | 82 | 1015.4 |
| 20260506140004 | 69 | 225 | 7.0 | 11.0 | 0.00 | 0.00 | 0.00 | 81 | 1015.4 |
| 20260506135503 | 68 | 219 | 6.0 | 11.0 | 0.00 | 0.00 | 0.00 | 82 | 1015.4 |
| 20260506135003 | 68 | 231 | 7.0 | 11.0 | 0.00 | 0.00 | 0.00 | 82 | 1015.5 |
| 20260506134510 | 68 | 186 | 4.0 | 14.0 | 0.00 | 0.00 | 0.00 | 83 | 1015.4 |
| 20260506134004 | 68 | 221 | 8.0 | 14.0 | 0.00 | 0.00 | 0.00 | 83 | 1015.5 |
| 20260506133500 | 67 | 221 | 6.0 | 12.0 | 0.00 | 0.00 | 0.00 | 83 | 1015.5 |
| 20260506133014 | 67 | 202 | 5.0 | 12.0 | 0.00 | 0.00 | 0.00 | 84 | 1015.5 |
| 20260506132503 | 67 | 242 | 4.0 | 12.0 | 0.00 | 0.00 | 0.00 | 84 | 1015.4 |
| 20260506132007 | 67 | 209 | 6.0 | 12.0 | 0.00 | 0.00 | 0.00 | 84 | 1015.4 |
| 20260506131513 | 67 | 218 | 5.0 | 12.0 | 0.00 | 0.00 | 0.00 | 84 | 1015.5 |
| 20260506131003 | 66 | 233 | 8.0 | 12.0 | 0.00 | 0.00 | 0.00 | 84 | 1015.5 |
| 20260506130506 | 66 | 254 | 6.0 | 11.0 | 0.00 | 0.00 | 0.00 | 84 | 1015.5 |
| 20260506130006 | 66 | 244 | 6.0 | 13.0 | 0.00 | 0.00 | 0.00 | 84 | 1015.5 |
| 20260506125507 | 66 | 246 | 4.0 | 13.0 | 0.00 | 0.00 | 0.00 | 84 | 1015.5 |
| 20260506125004 | 66 | 250 | 5.0 | 14.0 | 0.00 | 0.00 | 0.00 | 84 | 1015.4 |
| 20260506124508 | 66 | 244 | 8.0 | 14.0 | 0.00 | 0.00 | 0.00 | 84 | 1015.4 |
| 20260506124003 | 66 | 243 | 5.0 | 13.0 | 0.00 | 0.00 | 0.00 | 84 | 1015.4 |
| 20260506123506 | 66 | 196 | 6.0 | 11.0 | 0.00 | 0.00 | 0.00 | 84 | 1015.3 |
| 20260506123006 | 66 | 214 | 6.0 | 13.0 | 0.00 | 0.00 | 0.00 | 84 | 1014.9 |
| 20260506122505 | 66 | 227 | 7.0 | 13.0 | 0.00 | 0.00 | 0.00 | 84 | 1014.9 |
| 20260506122005 | 66 | 242 | 6.0 | 12.0 | 0.00 | 0.00 | 0.00 | 84 | 1014.8 |
| 20260506121508 | 66 | 205 | 6.0 | 13.0 | 0.00 | 0.00 | 0.00 | 84 | 1014.8 |
| 20260506121008 | 66 | 227 | 7.0 | 16.0 | 0.00 | 0.00 | 0.00 | 84 | 1014.7 |
| 20260506120503 | 66 | 237 | 8.0 | 16.0 | 0.00 | 0.00 | 0.00 | 84 | 1014.3 |
| 20260506120041 | 66 | 235 | 5.0 | 13.0 | 0.00 | 0.00 | 0.00 | 84 | 1014.3 |
| 20260506115503 | 66 | 238 | 8.0 | 17.0 | 0.00 | 0.00 | 0.00 | 84 | 1014.3 |
| 20260506115005 | 66 | 208 | 6.0 | 17.0 | 0.00 | 0.00 | 0.00 | 84 | 1014.3 |
| 20260506114506 | 65 | 216 | 7.0 | 12.0 | 0.00 | 0.00 | 0.00 | 84 | 1014.4 |
| 20260506114007 | 65 | 233 | 5.0 | 14.0 | 0.00 | 0.00 | 0.00 | 84 | 1014.2 |
| 20260506113508 | 65 | 207 | 10.0 | 14.0 | 0.00 | 0.00 | 0.00 | 84 | 1014.1 |
| 20260506113008 | 65 | 257 | 7.0 | 14.0 | 0.00 | 0.00 | 0.00 | 84 | 1014.1 |
| 20260506112503 | 65 | 258 | 3.0 | 10.0 | 0.00 | 0.00 | 0.00 | 84 | 1014.0 |
| 20260506112003 | 65 | 238 | 4.0 | 14.0 | 0.00 | 0.00 | 0.00 | 84 | 1014.0 |
| 20260506111515 | 65 | 209 | 5.0 | 14.0 | 0.00 | 0.00 | 0.00 | 84 | 1014.0 |
| 20260506111003 | 65 | 234 | 6.0 | 14.0 | 0.00 | 0.00 | 0.00 | 84 | 1013.8 |
| 20260506110508 | 65 | 222 | 8.0 | 12.0 | 0.00 | 0.00 | 0.00 | 84 | 1013.9 |
| 20260506110010 | 65 | 229 | 6.0 | 15.0 | 0.00 | 0.00 | 0.00 | 84 | 1013.8 |
| 20260506105508 | 66 | 208 | 6.0 | 15.0 | 0.00 | 0.00 | 0.00 | 84 | 1013.6 |
| 20260506105007 | 66 | 233 | 7.0 | 11.0 | 0.00 | 0.00 | 0.00 | 84 | 1013.5 |
| 20260506104521 | 66 | 242 | 5.0 | 10.0 | 0.00 | 0.00 | 0.00 | 84 | 1013.4 |
| 20260506104009 | 66 | 209 | 5.0 | 12.0 | 0.00 | 0.00 | 0.00 | 83 | 1013.3 |
| 20260506103504 | 66 | 240 | 5.0 | 12.0 | 0.00 | 0.00 | 0.00 | 83 | 1013.2 |
| 20260506103023 | 66 | 198 | 6.0 | 13.0 | 0.00 | 0.00 | 0.00 | 83 | 1013.3 |
| 20260506102509 | 66 | 219 | 8.0 | 13.0 | 0.00 | 0.00 | 0.00 | 83 | 1013.3 |
| 20260506102003 | 65 | 219 | 4.0 | 10.0 | 0.00 | 0.00 | 0.00 | 83 | 1013.2 |
| 20260506101512 | 65 | 209 | 4.0 | 11.0 | 0.00 | 0.00 | 0.00 | 83 | 1013.1 |
| 20260506101003 | 65 | 225 | 4.0 | 11.0 | 0.00 | 0.00 | 0.00 | 83 | 1013.0 |
| 20260506100502 | 65 | 227 | 5.0 | 10.0 | 0.00 | 0.00 | 0.00 | 83 | 1013.0 |
| 20260506100005 | 65 | 212 | 4.0 | 10.0 | 0.00 | 0.00 | 0.00 | 82 | 1012.8 |
| 20260506095502 | 65 | 225 | 6.0 | 10.0 | 0.00 | 0.00 | 0.00 | 82 | 1012.5 |
| 20260506095004 | 65 | 201 | 3.0 | 11.0 | 0.00 | 0.00 | 0.00 | 82 | 1012.4 |
| 20260506094504 | 65 | 209 | 6.0 | 11.0 | 0.00 | 0.00 | 0.00 | 82 | 1012.4 |
| 20260506094002 | 65 | 233 | 3.0 | 10.0 | 0.00 | 0.00 | 0.00 | 82 | 1012.3 |
| 20260506093504 | 65 | 194 | 4.0 | 9.0 | 0.00 | 0.00 | 0.00 | 82 | 1012.1 |
| 20260506093002 | 65 | 228 | 3.0 | 9.0 | 0.00 | 0.00 | 0.00 | 82 | 1012.0 |
| 20260506092504 | 65 | 179 | 4.0 | 13.0 | 0.00 | 0.00 | 0.00 | 82 | 1012.1 |
| 20260506092003 | 65 | 215 | 5.0 | 13.0 | 0.00 | 0.00 | 0.00 | 82 | 1012.1 |
| 20260506091503 | 65 | 234 | 5.0 | 11.0 | 0.00 | 0.00 | 0.00 | 82 | 1012.0 |
| 20260506091002 | 65 | 178 | 4.0 | 13.0 | 0.00 | 0.00 | 0.00 | 82 | 1012.1 |
| 20260506090501 | 65 | 203 | 5.0 | 13.0 | 0.00 | 0.00 | 0.00 | 82 | 1012.1 |
| 20260506090002 | 65 | 173 | 3.0 | 10.0 | 0.00 | 0.00 | 0.00 | 82 | 1012.1 |
| 20260506085503 | 65 | 211 | 5.0 | 10.0 | 0.00 | 0.00 | 0.00 | 82 | 1012.0 |
| 20260506085002 | 65 | 157 | 2.0 | 10.0 | 0.00 | 0.00 | 0.00 | 81 | 1012.1 |
| 20260506084504 | 65 | 201 | 4.0 | 12.0 | 0.00 | 0.00 | 0.00 | 81 | 1012.1 |
| 20260506084006 | 65 | 224 | 4.0 | 17.0 | 0.00 | 0.00 | 0.00 | 81 | 1012.1 |
| 20260506083502 | 65 | 209 | 6.0 | 17.0 | 0.00 | 0.00 | 0.00 | 81 | 1012.1 |
| 20260506083006 | 65 | 219 | 5.0 | 12.0 | 0.00 | 0.00 | 0.00 | 81 | 1012.1 |
| 20260506082504 | 65 | 226 | 6.0 | 11.0 | 0.00 | 0.00 | 0.00 | 81 | 1012.1 |
| 20260506082001 | 65 | 173 | 4.0 | 11.0 | 0.00 | 0.00 | 0.00 | 80 | 1012.1 |
| 20260506081506 | 65 | 196 | 4.0 | 12.0 | 0.00 | 0.00 | 0.00 | 80 | 1012.2 |
| 20260506081002 | 65 | 223 | 6.0 | 13.0 | 0.00 | 0.00 | 0.00 | 80 | 1012.2 |
| 20260506080506 | 65 | 168 | 6.0 | 13.0 | 0.00 | 0.00 | 0.00 | 80 | 1012.3 |
| 20260506073501 | 64 | 207 | 4.0 | 9.0 | 0.00 | 0.00 | 0.00 | 80 | 1012.1 |
| 20260506073003 | 64 | 208 | 4.0 | 9.0 | 0.00 | 0.00 | 0.00 | 80 | 1012.2 |
| 20260506072502 | 64 | 196 | 4.0 | 9.0 | 0.00 | 0.00 | 0.00 | 80 | 1012.4 |
| 20260506072001 | 64 | 209 | 4.0 | 9.0 | 0.00 | 0.00 | 0.00 | 80 | 1012.4 |
| 20260506071503 | 64 | 244 | 5.0 | 9.0 | 0.00 | 0.00 | 0.00 | 80 | 1012.5 |
| 20260506071005 | 65 | 186 | 3.0 | 8.0 | 0.00 | 0.00 | 0.00 | 79 | 1012.5 |
| 20260506070502 | 65 | 185 | 3.0 | 8.0 | 0.00 | 0.00 | 0.00 | 79 | 1012.5 |
| 20260506062501 | 66 | 179 | 4.0 | 8.0 | 0.00 | 0.00 | 0.00 | 77 | 1013.0 |
| 20260506062003 | 66 | 197 | 4.0 | 8.0 | 0.00 | 0.00 | 0.00 | 77 | 1013.0 |
| 20260506061506 | 66 | 207 | 2.0 | 9.0 | 0.00 | 0.00 | 0.00 | 76 | 1013.1 |
| 20260506061003 | 66 | 219 | 3.0 | 9.0 | 0.00 | 0.00 | 0.00 | 76 | 1013.1 |
| 20260506060502 | 66 | 217 | 4.0 | 12.0 | 0.00 | 0.00 | 0.00 | 76 | 1013.2 |